This is the latest recevied weather packets stored in our database for station/object VA3JLF-1. If no packets are shown the sender has not sent any weather packets the latest 10 day(s).
| Time | Temp. | Humidity | Pressure | Rain* | Wind** | Luminosity | Snow |
|---|---|---|---|---|---|---|---|
| 1778135947 | 6.11° C | 69% | 1008.1 hPa | 0 mm | - | - | - |
| 1778135348 | 6.11° C | 70% | 1007.7 hPa | 0 mm | - | - | - |
| 1778134747 | 6.11° C | 70% | 1008.2 hPa | 0 mm | - | - | - |
| 1778134148 | 6.11° C | 73% | 1008.2 hPa | 0 mm | - | - | - |
| 1778133549 | 6.11° C | 72% | 1008.2 hPa | 0 mm | - | - | - |
| 1778132948 | 6.11° C | 75% | 1008.3 hPa | 0 mm | - | - | - |
| 1778132348 | 6.11° C | 72% | 1008.3 hPa | 0 mm | - | - | - |
| 1778131749 | 6.11° C | 72% | 1008.5 hPa | 0 mm | - | - | - |
| 1778131148 | 6.11° C | 71% | 1008.3 hPa | 0 mm | - | - | - |
| 1778130549 | 6.11° C | 70% | 1008.4 hPa | 0 mm | - | - | - |
| 1778129955 | 6.11° C | - | - | 0 mm | - | - | - |
| 1778129949 | 6.11° C | 71% | 1008.6 hPa | 0 mm | - | - | - |
| 1778129348 | 6.11° C | 73% | 1008.2 hPa | 0 mm | - | - | - |
| 1778128748 | 6.67° C | 73% | 1008.4 hPa | 0 mm | - | - | - |
| 1778128149 | 6.67° C | 70% | 1008.7 hPa | 0 mm | - | - | - |
| 1778127548 | 6.11° C | 69% | 1008.6 hPa | 0 mm | - | - | - |
| 1778126948 | 6.67° C | 68% | 1008.4 hPa | 0 mm | - | - | - |
| 1778126348 | 6.67° C | 68% | 1008.4 hPa | 0 mm | - | - | - |
| 1778125748 | 6.67° C | 71% | 1008.2 hPa | 0 mm | - | - | - |
| 1778125148 | 6.67° C | 76% | 1008.1 hPa | 0 mm | - | - | - |
| 1778124547 | 6.67° C | 78% | 1007.9 hPa | 0 mm | - | - | - |
| 1778123948 | 6.67° C | 87% | 1007.7 hPa | 0 mm | - | - | - |
| 1778123348 | 6.67° C | 86% | 1007.9 hPa | 0 mm | - | - | - |
| 1778122748 | 6.67° C | 90% | 1008.2 hPa | 0 mm | - | - | - |
| 1778122148 | 6.67° C | 93% | 1008.3 hPa | 0 mm | - | - | - |
* Rain latest hour (hover to see other rain measurements)
** Current wind speed in m/s (hover to see current wind gust speed)